TimeCDT,TemperatureF,Dew PointF,Humidity,Sea Level PressureIn,VisibilityMPH,Wind Direction,Wind SpeedMPH,Gust SpeedMPH,PrecipitationIn,Events,Conditions,WindDirDegrees,DateUTC
12:53 AM,75.0,72.0,90,29.99,6.0,Calm,Calm,-,N/A,,Clear,0,2014-08-03 05:53:00
1:53 AM,77.0,71.1,82,29.99,7.0,NNE,3.5,-,N/A,,Overcast,30,2014-08-03 06:53:00
3:53 AM,75.0,71.1,87,29.98,6.0,Calm,Calm,-,N/A,,Clear,0,2014-08-03 08:53:00
4:53 AM,75.0,71.1,87,29.99,6.0,Calm,Calm,-,N/A,,Overcast,0,2014-08-03 09:53:00
5:53 AM,75.0,70.0,84,30.00,6.0,NNE,5.8,-,N/A,,Haze,30,2014-08-03 10:53:00
6:53 AM,75.0,70.0,84,30.01,6.0,Calm,Calm,-,N/A,,Haze,0,2014-08-03 11:53:00
7:53 AM,75.0,70.0,84,30.02,6.0,NE,3.5,-,N/A,,Haze,40,2014-08-03 12:53:00
8:53 AM,77.0,70.0,79,30.02,7.0,ENE,3.5,-,N/A,,Scattered Clouds,60,2014-08-03 13:53:00
9:53 AM,79.0,71.1,77,30.03,7.0,NE,5.8,-,N/A,,Scattered Clouds,50,2014-08-03 14:53:00
10:53 AM,84.0,71.1,65,30.03,8.0,ENE,3.5,-,N/A,,Mostly Cloudy,60,2014-08-03 15:53:00
11:53 AM,87.1,69.1,55,30.02,9.0,Variable,3.5,-,N/A,,Clear,0,2014-08-03 16:53:00
12:53 PM,87.1,70.0,57,30.01,9.0,ENE,5.8,-,N/A,,Partly Cloudy,60,2014-08-03 17:53:00
1:53 PM,89.1,69.1,52,29.98,10.0,Variable,6.9,-,N/A,,Clear,0,2014-08-03 18:53:00
2:53 PM,91.9,64.9,41,29.96,10.0,NNW,9.2,-,N/A,,Partly Cloudy,340,2014-08-03 19:53:00
3:53 PM,91.0,64.9,42,29.95,10.0,Variable,3.5,-,N/A,,Scattered Clouds,0,2014-08-03 20:53:00
4:53 PM,90.0,66.0,45,29.94,10.0,NNE,4.6,-,N/A,,Mostly Cloudy,20,2014-08-03 21:53:00
5:53 PM,84.9,72.0,65,29.94,10.0,SE,4.6,-,N/A,,Overcast,130,2014-08-03 22:53:00
6:37 PM,82.9,71.1,67,29.96,10.0,East,3.5,-,N/A,Thunderstorm,Partly Cloudy,100,2014-08-03 23:37:00
6:53 PM,82.0,72.0,71,29.96,9.0,ESE,6.9,-,N/A,,Clear,110,2014-08-03 23:53:00
7:25 PM,82.0,69.1,65,29.97,10.0,East,4.6,-,N/A,Thunderstorm,Mostly Cloudy,80,2014-08-04 00:25:00
7:36 PM,81.0,69.1,67,29.99,10.0,East,3.5,-,N/A,Thunderstorm,Thunderstorm,90,2014-08-04 00:36:00
7:51 PM,80.6,69.8,70,29.98,10.0,ENE,5.8,-,N/A,Thunderstorm,Overcast,60,2014-08-04 00:51:00
7:53 PM,81.0,69.1,67,29.97,10.0,ENE,4.6,-,N/A,Thunderstorm,Overcast,60,2014-08-04 00:53:00
8:16 PM,80.1,69.1,69,30.00,10.0,Variable,4.6,-,N/A,,Overcast,0,2014-08-04 01:16:00
9:53 PM,75.9,71.1,85,30.01,10.0,Calm,Calm,-,N/A,,Clear,0,2014-08-04 02:53:00
10:53 PM,75.0,71.1,87,30.00,9.0,Calm,Calm,-,N/A,,Clear,0,2014-08-04 03:53:00